TimeEST,TemperatureF,Dew PointF,Humidity,Sea Level PressureIn,VisibilityMPH,Wind Direction,Wind SpeedMPH,Gust SpeedMPH,PrecipitationIn,Events,Conditions,WindDirDegrees,DateUTC
12:56 AM,21.9,17.1,82,30.56,10.0,Calm,Calm,-,N/A,,Clear,0,2012-11-14 05:56:00
1:56 AM,21.0,17.1,85,30.56,10.0,Calm,Calm,-,N/A,,Clear,0,2012-11-14 06:56:00
2:56 AM,21.9,18.0,85,30.57,10.0,Calm,Calm,-,N/A,,Clear,0,2012-11-14 07:56:00
3:56 AM,19.9,16.0,85,30.58,10.0,Calm,Calm,-,N/A,,Clear,0,2012-11-14 08:56:00
4:56 AM,19.9,16.0,85,30.58,10.0,Calm,Calm,-,N/A,,Clear,0,2012-11-14 09:56:00
5:56 AM,19.0,15.1,85,30.59,10.0,Calm,Calm,-,N/A,,Clear,0,2012-11-14 10:56:00
6:56 AM,19.9,15.1,81,30.59,10.0,Calm,Calm,-,N/A,,Clear,0,2012-11-14 11:56:00
7:56 AM,21.9,18.0,85,30.60,6.0,Calm,Calm,-,N/A,,Clear,0,2012-11-14 12:56:00
9:56 AM,32.0,21.9,66,30.60,10.0,SE,6.9,-,N/A,,Clear,130,2012-11-14 14:56:00
10:56 AM,35.1,23.0,61,30.60,10.0,South,5.8,-,N/A,,Clear,180,2012-11-14 15:56:00
11:56 AM,37.9,24.1,57,30.58,10.0,SSW,6.9,-,N/A,,Clear,200,2012-11-14 16:56:00
12:56 PM,37.9,23.0,55,30.55,10.0,SE,6.9,-,N/A,,Clear,140,2012-11-14 17:56:00
1:56 PM,39.0,23.0,53,30.53,10.0,Variable,5.8,-,N/A,,Clear,0,2012-11-14 18:56:00
2:56 PM,39.9,23.0,51,30.51,10.0,SSW,5.8,-,N/A,,Clear,200,2012-11-14 19:56:00
3:56 PM,39.0,23.0,53,30.50,10.0,SE,4.6,-,N/A,,Clear,130,2012-11-14 20:56:00
4:56 PM,37.0,24.1,59,30.50,10.0,SE,5.8,-,N/A,,Clear,140,2012-11-14 21:56:00
5:56 PM,35.1,24.1,64,30.50,10.0,ESE,3.5,-,N/A,,Clear,120,2012-11-14 22:56:00
6:56 PM,34.0,25.0,70,30.50,10.0,ESE,3.5,-,N/A,,Clear,120,2012-11-14 23:56:00
7:56 PM,34.0,26.1,73,30.48,10.0,SE,6.9,-,N/A,,Clear,140,2012-11-15 00:56:00
8:56 PM,33.1,26.1,75,30.48,10.0,SSE,5.8,-,N/A,,Clear,150,2012-11-15 01:56:00
9:56 PM,32.0,26.1,79,30.46,10.0,Calm,Calm,-,N/A,,Clear,0,2012-11-15 02:56:00
10:56 PM,30.9,25.0,79,30.45,9.0,SE,3.5,-,N/A,,Clear,130,2012-11-15 03:56:00
11:56 PM,28.0,24.1,85,30.45,8.0,Calm,Calm,-,N/A,,Clear,0,2012-11-15 04:56:00